Date,TemperatureHighF,TemperatureAvgF,TemperatureLowF,DewpointHighF,DewpointAvgF,DewpointLowF,HumidityHigh,HumidityAvg,HumidityLow,PressureMaxIn,PressureMinIn,WindSpeedMaxMPH,WindSpeedAvgMPH,GustSpeedMaxMPH,PrecipitationSumIn
2013-2-1,42.0,33.6,26.0,28.0,12.1,-2.0,77,44,16,0.00,40.00,8,5,15,0.00
2013-2-2,45.0,31.9,19.0,37.0,20.1,0.0,99,67,15,0.00,40.00,4,2,16,0.36
2013-2-3,52.0,40.3,31.0,38.0,30.8,23.0,99,73,36,0.00,40.00,8,5,17,0.36
2013-2-4,49.0,37.6,28.0,30.0,25.7,22.0,88,64,38,0.00,40.00,4,2,7,0.00
2013-2-5,58.0,44.3,32.0,47.0,36.8,27.0,93,76,56,0.00,40.00,4,2,9,0.00
2013-2-6,69.0,52.1,33.0,46.0,34.4,27.0,99,60,21,0.00,40.00,5,2,11,0.00
2013-2-7,50.0,45.8,44.0,45.0,37.1,27.0,95,74,44,0.00,40.00,5,3,11,0.23
2013-2-8,56.0,47.0,38.0,48.0,40.8,28.0,100,81,43,0.00,40.00,9,4,15,0.05
2013-2-9,64.0,44.5,27.0,30.0,25.4,19.0,96,55,20,0.00,40.00,3,2,6,0.01
2013-2-10,57.0,47.2,42.0,46.0,35.3,23.0,100,66,40,0.00,40.00,4,3,11,1.16
2013-2-11,55.0,50.7,47.0,55.0,50.3,47.0,100,99,95,0.00,40.00,3,3,9,1.51
2013-2-12,56.0,47.5,43.0,47.0,39.5,31.0,98,77,39,0.00,40.00,3,2,8,0.21
2013-2-13,49.0,42.9,35.0,45.0,40.2,33.0,99,91,77,0.00,40.00,7,4,17,0.26
2013-2-14,57.0,41.9,31.0,35.0,31.2,29.0,95,70,34,0.00,40.00,6,3,10,0.01
2013-2-15,63.0,43.1,28.0,40.0,32.5,27.0,97,72,32,0.00,40.00,6,3,15,0.01
2013-2-16,42.0,35.5,28.0,33.0,19.5,8.0,82,55,28,0.00,40.00,12,6,19,0.00
2013-2-17,45.0,32.2,22.0,14.0,8.3,3.0,54,38,18,0.00,40.00,7,4,15,0.00
2013-2-18,58.0,38.7,23.0,26.0,20.1,14.0,74,50,26,0.00,40.00,5,2,7,0.00
2013-2-19,54.0,42.6,36.0,44.0,30.1,16.0,99,67,29,0.00,40.00,8,4,20,0.33
2013-2-20,56.0,38.6,29.0,15.0,12.2,1.0,54,36,11,0.00,40.00,7,4,12,0.01
2013-2-21,63.0,44.5,28.0,40.0,19.3,11.0,89,41,15,0.00,40.00,4,3,10,0.07
2013-2-22,42.0,40.0,38.0,41.0,39.0,37.0,99,96,93,0.00,40.00,5,4,14,1.50
2013-2-23,51.0,44.8,40.0,47.0,43.7,40.0,100,96,87,0.00,40.00,4,2,8,0.66
2013-2-24,67.0,49.2,36.0,45.0,37.2,26.0,100,70,24,0.00,40.00,4,2,11,0.01
2013-2-25,51.0,43.6,37.0,38.0,28.3,23.0,96,56,41,0.00,40.00,6,4,17,0.00
2013-2-26,43.0,38.6,35.0,42.0,37.1,34.0,98,95,79,0.00,40.00,6,3,19,1.26
2013-2-27,57.0,45.7,38.0,35.0,32.9,30.0,82,62,41,0.00,40.00,7,4,17,0.01
2013-2-28,45.0,39.5,35.0,33.0,26.3,23.0,66,59,46,0.00,40.00,8,6,16,0.00